星链-32389 (STARLINK-32389)

导读 | 豆包AI

STARLINK-32389是美国SpaceX公司星链(Starlink)星座的组网卫星,于2024年10月15日发射升空,星链项目旨在构建全球覆盖的低轨卫星互联网系统,为全球提供高速宽带网络服务。该卫星运行于近地轨道,是星链大规模组网计划的组成部分,将与其他星链卫星协同,补充增强星座的通信覆盖能力,服务全球偏远地区及移动场景的互联网接入需求。

基本信息
目录编号:
61549
目录名称:
STARLINK-32389
国际标识:
2024-184T
轨道中心:
EARTH
卫星名称:
星链-32389
卫星全名:
星链-32389 (STARLINK-32389)
卫星状态:
在轨 (已飞行563 天)
发射日期:
2024-10-15 UTC
国别 :
美国 (US)
星等 :
--
轨道信息
数据来源 国际轨道数据
星历时间: 2026-04-30T16:00:17+0800
19小时前
查看轨道信息
半长轴: 6853.376km
偏心率: 0.0001189
轨道倾角: 53.160°
近地点辐角 89.083°
升交点赤经 134.080°
平近点角 271.031°
近地点: 474.424km
远地点: 476.054km
周期: 94.106分钟
每日圈数: 15.301923
详细信息
固有亮度:
5
最大亮度:
2.5
卫星平台:
Starlink V1.0
覆盖范围:
全球
运营商:
太空探索技术公司
运营商所在国:
美国
制造商(研发单位):
太空探索技术公司
制造商所在国:
美国
使用方式:
暂无
卫星简介
Starlink 计划是 SpaceX 推出的全球卫星互联网项目,通过发射低轨道卫星,为全球尤其是偏远地区提供高速、低延迟的互联网服务。自 2019 年起,Starlink 已部署数千颗卫星,旨在缩小全球数字鸿沟,推动互联网普及。该项目还为军事、航空等行业提供通信支持,带来广泛经济效益。
2D轨道图
3D轨道图
轨道高度分析图
轨道倾角分析图
轨道综合分析图
查看轨道综合分析图